Tracking 20242 objects as of 24-Jan-2020
HD Live streaming from Space Station
objects crossing your sky now

COSMOS 2251 DEB

Track COSMOS 2251 DEB now!
10-day predictions


NORAD ID: 36369
Int'l Code: 1993-036AYW
Perigee: 724.6 km
Apogee: 760.9 km
Inclination: 74.0 °
Period: 99.5 minutes
Semi major axis: 7113 km
RCS: 0.0099 m2 (small)
Launch date: June 16, 1993
Source: Commonwealth of Independent States (former USSR) (CIS)
Launch site: PLESETSK MISSILE AND SPACE COMPLEX (PKMTR)

Note: This is SATELLITE DEBRIS
aabbcc
Your satellite tracking list
Your tracking list is empty




NASA's NSSDC Master Catalog

Two Line Element Set (TLE):
1 36369U 93036AYW 20023.14209907 +.00000530 +00000-0 +15260-3 0  9992
2 36369 074.0414 173.9194 0025502 078.5527 281.8494 14.46964877546671
Source of the keplerian elements: AFSPC